Parsons, KS

6:08 AM CDT on October 21, 2019 (GMT -0500)
Tri-City

Weather History for KPPF - September, 2019

Change the Weather History Date:

Saturday, September 21, 2019

  Actual Average Record
Temperature  
Mean Temperature 76 °F -  
Max Temperature 82 °F 78 °F 98 °F (1955)
Min Temperature 71 °F 56 °F 34 °F (1983)
Cooling Degree Days 11    
Growing Degree Days 26 (Base 50)    
Moisture  
Dew Point 72 °F    
Average Humidity 90    
Maximum Humidity 100    
Minimum Humidity 76    
Precipitation  
Precipitation 0.40 in - - ()
Sea Level Pressure  
Sea Level Pressure 30.00 in    
Wind  
Wind Speed 8 mph ()    
Max Wind Speed 14 mph    
Max Gust Speed 31 mph    
Visibility 7.7 miles    
Events Rain , Thunderstorm    
Averages and records for this station are not official NWS values.
T = Trace of Precipitation, MM = Missing Value Source: Averaged Metar Reports

Daily Weather History Graph

Daily Weather History Graph

Search for Another Location

Airport or City:

Astronomy

Sep. 21, 2019 Rise Set
Actual Time 7:08 AM CDT 7:20 PM CDT
Civil Twilight 6:42 AM CDT 7:46 PM CDT
Nautical Twilight 6:12 AM CDT 8:17 PM CDT
Astronomical Twilight 5:41 AM CDT 8:48 PM CDT
Moon No Moon Rise 2:07 PM CDT
Length of Visible Light 13h 03m
Length of Day
12h 11m
Waning Gibbous, 54% of the Moon is Illuminated
Sep 21
Waning Gibbous
Sep 21
Last Quarter
Sep 28
New
Oct 5
First Quarter
Oct 13
Full

Hourly Weather History & Observations

Time (CDT) Temp. Heat Index Dew Point Humidity Pressure Visibility Wind Dir Wind Speed Gust Speed Precip Events Conditions
12:14 AM 73.0 °F - 71.1 °F 93% 30.00 in 10.0 mi SSE 8.1 mph - N/A   Overcast
12:52 AM 73.0 °F - 71.1 °F 93% 29.97 in 10.0 mi South 9.2 mph - N/A   Overcast
1:52 AM 73.9 °F - 71.1 °F 91% 29.96 in 10.0 mi South 8.1 mph - N/A   Overcast
2:52 AM 73.9 °F - 71.1 °F 91% 29.97 in 10.0 mi South 6.9 mph 19.6 mph N/A   Overcast
3:52 AM 75.0 °F - 72.0 °F 90% 29.96 in 10.0 mi South 9.2 mph - N/A   Overcast
4:52 AM 75.0 °F - 72.0 °F 90% 29.97 in 10.0 mi South 5.8 mph - N/A   Overcast
5:52 AM 75.0 °F - 72.0 °F 90% 29.98 in 10.0 mi South 9.2 mph 20.7 mph N/A   Mostly Cloudy
6:17 AM 75.0 °F - 72.0 °F 90% 30.01 in 10.0 mi South 10.4 mph 17.3 mph N/A   Overcast
6:49 AM 75.2 °F - 71.6 °F 89% 30.01 in 10.0 mi South 8.1 mph - N/A   Overcast
6:52 AM 75.0 °F - 72.0 °F 90% 29.99 in 10.0 mi South 11.5 mph - N/A   Overcast
7:52 AM 75.0 °F - 72.0 °F 90% 30.00 in 10.0 mi South 11.5 mph 21.9 mph 0.00 in Rain Light Rain
8:12 AM 75.0 °F - 72.0 °F 90% 30.02 in 10.0 mi South 10.4 mph 20.7 mph 0.00 in   Overcast
8:23 AM 75.0 °F - 72.0 °F 90% 30.02 in 10.0 mi South 9.2 mph 24.2 mph 0.00 in   Scattered Clouds
8:52 AM 75.0 °F - 72.0 °F 90% 30.01 in 10.0 mi South 12.7 mph 20.7 mph 0.00 in   Mostly Cloudy
9:52 AM 75.9 °F - 72.0 °F 87% 30.01 in 10.0 mi South 10.4 mph 23.0 mph N/A   Overcast
10:52 AM 73.0 °F - 73.0 °F 100% 30.03 in 2.5 mi South 11.5 mph 23.0 mph 0.06 in Rain , Thunderstorm Heavy Rain
11:01 AM 73.0 °F - 73.0 °F 100% 30.06 in 2.5 mi South 10.4 mph 20.7 mph 0.02 in Rain , Thunderstorm Thunderstorms and Rain
11:10 AM 73.0 °F - 73.0 °F 100% 30.06 in 2.5 mi South 9.2 mph 23.0 mph 0.05 in Rain , Thunderstorm Thunderstorms and Rain
11:13 AM 73.0 °F - 73.0 °F 100% 30.06 in 1.2 mi South 12.7 mph 24.2 mph 0.14 in Rain , Thunderstorm Thunderstorms and Rain
11:15 AM 73.0 °F - 73.0 °F 100% 30.06 in 0.8 mi South 11.5 mph 24.2 mph 0.21 in Rain , Thunderstorm Heavy Thunderstorms and Rain
11:26 AM 73.0 °F - 72.0 °F 96% 30.06 in 1.0 mi South 13.8 mph 31.1 mph 0.31 in Rain , Thunderstorm Thunderstorms and Rain
11:28 AM 73.0 °F - 72.0 °F 96% 30.06 in 1.8 mi South 10.4 mph 31.1 mph 0.31 in Rain , Thunderstorm Light Thunderstorms and Rain
11:30 AM 73.0 °F - 72.0 °F 96% 30.05 in 4.0 mi SSE 9.2 mph 31.1 mph 0.31 in Rain , Thunderstorm Light Thunderstorms and Rain
11:37 AM 73.0 °F - 72.0 °F 96% 30.05 in 6.0 mi SSE 10.4 mph 19.6 mph 0.31 in Thunderstorm Overcast
11:49 AM 71.6 °F - 71.6 °F 100% 30.04 in 3.0 mi South 10.4 mph 25.3 mph 0.31 in Rain , Thunderstorm Light Rain
11:52 AM 72.0 °F - 71.1 °F 97% 30.01 in 4.0 mi SSE 10.4 mph 25.3 mph 0.31 in Rain , Thunderstorm Light Rain
11:57 AM 72.0 °F - 71.1 °F 97% 30.04 in 4.0 mi South 11.5 mph 23.0 mph 0.01 in Rain Light Rain
12:07 PM 72.0 °F - 71.1 °F 97% 30.04 in 5.0 mi South 9.2 mph 21.9 mph 0.01 in Rain Light Rain
12:52 PM 73.9 °F - 72.0 °F 93% 30.01 in 10.0 mi South 8.1 mph - 0.01 in   Overcast
1:08 PM 73.9 °F - 72.0 °F 93% 30.04 in 9.0 mi South 6.9 mph - N/A   Overcast
1:52 PM 75.9 °F - 73.9 °F 94% 29.99 in 9.0 mi South 8.1 mph - 0.02 in Rain Light Rain
2:52 PM 80.1 °F 84.5 °F 73.9 °F 81% 29.97 in 10.0 mi South 6.9 mph 17.3 mph 0.00 in   Overcast
3:52 PM 81.0 °F 86.2 °F 73.9 °F 79% 29.96 in 10.0 mi South 8.1 mph - N/A   Overcast
4:52 PM 81.0 °F 85.8 °F 73.0 °F 77% 29.94 in 10.0 mi South 13.8 mph 24.2 mph N/A   Overcast
5:52 PM 81.0 °F 85.8 °F 73.0 °F 77% 29.94 in 10.0 mi South 6.9 mph 18.4 mph N/A   Mostly Cloudy
6:52 PM 80.1 °F 83.8 °F 72.0 °F 76% 29.95 in 10.0 mi South 5.8 mph - N/A   Overcast
7:52 PM 78.1 °F - 71.1 °F 79% 29.94 in 10.0 mi South 4.6 mph - N/A   Clear
8:52 PM 77.0 °F - 71.1 °F 82% 29.94 in 10.0 mi South 6.9 mph - N/A   Clear
9:52 PM 77.0 °F - 69.1 °F 76% 29.92 in 10.0 mi South 10.4 mph 20.7 mph N/A   Clear
10:52 PM 75.9 °F - 69.1 °F 79% 29.92 in 10.0 mi South 9.2 mph - N/A   Clear
11:52 PM 75.9 °F - 69.1 °F 79% 29.93 in 10.0 mi South 11.5 mph 20.7 mph N/A   Clear